EW6239 Weather Reports


Display with metric or nautical units.
time (UTC)temp
F
wind
direction
speed
MPH
gust
MPH
rain 1hr
in
rain 24hr
in
rain mn
in
humidity
%
barometer
mb
20260507020517 50 0.0 1.0 0.00 0.00 0.00 75 1002.2
20260507015517 50 0.0 2.0 0.00 0.00 0.00 74 1002.2
20260507014517 50 0.0 3.0 0.00 0.00 0.00 74 1002.2
20260507013558 50 0.0 1.0 0.00 0.00 0.00 74 1002.2
20260507012517 50 0.0 2.0 0.00 0.00 0.00 72 1002.3
20260507011517 50 225 1.0 3.0 0.00 0.00 0.00 72 1002.2
20260507010517 50 225 1.0 3.0 0.00 0.00 0.00 72 1002.2
20260507005517 50 225 1.0 4.0 0.00 0.00 0.00 70 1002.3
20260507004517 50 225 2.0 5.0 0.00 0.00 0.00 69 1002.2
20260507003517 50 225 1.0 4.0 0.00 0.00 0.00 68 1002.2
20260507002537 51 225 2.0 4.0 0.00 0.00 0.00 68 1002.1
20260507001537 51 225 1.0 4.0 0.00 0.00 0.00 67 1002.0
20260507000517 51 225 1.0 4.0 0.00 0.00 0.00 67 1001.9
20260506235537 51 225 2.0 4.0 0.00 0.00 0.00 67 1001.8
20260506234517 51 225 1.0 4.0 0.00 0.00 0.00 67 1001.6
20260506233517 51 225 2.0 5.0 0.00 0.00 0.00 67 1001.6
20260506232537 51 225 2.0 6.0 0.00 0.00 0.00 66 1001.5
20260506231537 52 225 2.0 5.0 0.00 0.00 0.00 65 1001.4
20260506230517 52 225 1.0 4.0 0.00 0.00 0.00 65 1001.3
20260506225557 52 225 2.0 4.0 0.00 0.00 0.00 64 1001.4
20260506224537 52 225 2.0 7.0 0.00 0.00 0.00 63 1001.5
20260506223517 53 225 1.0 3.0 0.00 0.00 0.00 63 1001.6
20260506222517 53 225 2.0 4.0 0.00 0.00 0.00 62 1001.6
20260506221517 53 225 1.0 4.0 0.00 0.00 0.00 62 1001.5
20260506220557 54 225 1.0 4.0 0.00 0.00 0.00 61 1001.4
20260506215517 54 225 1.0 4.0 0.00 0.00 0.00 60 1001.4
20260506214537 54 225 1.0 3.0 0.00 0.00 0.00 61 1001.5
20260506213517 54 225 2.0 5.0 0.00 0.00 0.00 60 1001.4
20260506212517 55 225 2.0 5.0 0.00 0.00 0.00 58 1001.4
20260506211517 55 225 2.0 5.0 0.00 0.00 0.00 56 1001.4
20260506210517 55 225 1.0 3.0 0.00 0.00 0.00 57 1001.4
20260506205516 55 225 2.0 4.0 0.00 0.00 0.00 56 1001.3
20260506204517 56 225 1.0 2.0 0.00 0.00 0.00 57 1001.2
20260506203517 56 203 2.0 6.0 0.00 0.00 0.00 56 1001.2
20260506202517 56 225 2.0 5.0 0.00 0.00 0.00 57 1001.0
20260506201517 56 225 2.0 5.0 0.00 0.00 0.00 56 1001.1
20260506200517 55 225 2.0 6.0 0.00 0.00 0.00 57 1001.2
20260506195517 55 225 2.0 4.0 0.00 0.00 0.00 57 1001.3
20260506194517 55 225 2.0 5.0 0.00 0.00 0.00 57 1001.5
20260506193516 55 225 2.0 5.0 0.00 0.00 0.00 56 1001.6
20260506192517 56 225 3.0 10.0 0.00 0.00 0.00 53 1001.7
20260506191516 56 225 3.0 7.0 0.00 0.00 0.00 58 1001.7
20260506190516 56 225 1.0 4.0 0.00 0.00 0.00 57 1001.8
20260506185517 55 225 2.0 6.0 0.00 0.00 0.00 59 1001.8
20260506184517 55 225 2.0 6.0 0.00 0.00 0.00 60 1001.7
20260506183516 55 225 3.0 7.0 0.00 0.00 0.00 60 1001.9
20260506182516 55 225 2.0 5.0 0.00 0.00 0.00 61 1001.9
20260506181516 54 225 1.0 3.0 0.00 0.00 0.00 64 1002.0
20260506180516 54 225 2.0 5.0 0.00 0.00 0.00 62 1002.0
20260506175516 54 225 3.0 7.0 0.00 0.00 0.00 64 1002.1
20260506174516 53 225 2.0 5.0 0.00 0.00 0.00 65 1002.2
20260506173516 53 225 1.0 5.0 0.00 0.00 0.00 64 1002.3
20260506172516 52 225 3.0 6.0 0.00 0.00 0.00 68 1002.3
20260506171536 51 225 3.0 5.0 0.00 0.00 0.00 68 1002.3
20260506170516 50 225 3.0 6.0 0.00 0.00 0.00 70 1002.2
20260506165516 49 225 1.0 4.0 0.00 0.00 0.00 70 1002.3
20260506164516 49 248 2.0 5.0 0.00 0.00 0.00 69 1002.5
20260506163516 49 225 2.0 3.0 0.00 0.00 0.00 70 1002.5
20260506162516 49 225 2.0 6.0 0.00 0.00 0.00 69 1002.6
20260506161516 49 203 3.0 6.0 0.00 0.00 0.00 68 1002.4
20260506160516 50 203 3.0 8.0 0.00 0.00 0.00 68 1002.5
20260506155516 50 225 3.0 6.0 0.00 0.00 0.00 68 1002.6
20260506154516 50 225 2.0 5.0 0.00 0.00 0.00 68 1002.6
20260506153516 50 225 1.0 2.0 0.00 0.00 0.00 67 1002.8
20260506152536 49 225 1.0 4.0 0.00 0.00 0.00 67 1002.7
20260506151516 50 225 2.0 5.0 0.00 0.00 0.00 67 1002.9
20260506150518 49 0.0 2.0 0.00 0.00 0.00 69 1002.7
20260506145518 49 0.0 2.0 0.00 0.00 0.00 68 1003.0
20260506144518 49 225 1.0 2.0 0.00 0.00 0.00 69 1003.0
20260506143518 49 225 3.0 8.0 0.00 0.00 0.00 68 1002.9
20260506142518 48 225 1.0 3.0 0.00 0.00 0.00 68 1002.9
20260506141518 48 225 2.0 5.0 0.00 0.00 0.00 68 1002.9
20260506140518 48 225 2.0 4.0 0.00 0.00 0.00 68 1002.6
20260506135538 48 225 2.0 4.0 0.00 0.00 0.00 69 1002.7
20260506134518 48 225 3.0 7.0 0.00 0.00 0.00 67 1002.6
20260506133538 48 225 2.0 5.0 0.00 0.00 0.00 65 1002.5
20260506132518 48 225 1.0 3.0 0.00 0.00 0.00 63 1002.5
20260506131518 48 225 2.0 4.0 0.00 0.00 0.00 63 1002.6
20260506130518 48 203 2.0 5.0 0.00 0.00 0.00 62 1002.5
20260506125518 48 203 2.0 4.0 0.00 0.00 0.00 63 1002.5
20260506124518 48 203 2.0 4.0 0.00 0.00 0.00 60 1002.6
20260506123518 48 203 2.0 5.0 0.00 0.00 0.00 57 1002.6
20260506122518 48 203 3.0 7.0 0.00 0.00 0.00 66 1002.6
20260506121538 48 0.0 0.0 0.00 0.00 0.00 65 1002.7
20260506120518 48 0.0 0.0 0.00 0.00 0.00 65 1002.5
20260506115518 47 0.0 0.0 0.00 0.00 0.00 65 1002.6
20260506114518 47 0.0 0.0 0.00 0.00 0.00 65 1002.7
20260506113517 47 0.0 0.0 0.00 0.00 0.00 66 1002.7
20260506112518 47 0.0 0.0 0.00 0.00 0.00 66 1002.6
20260506111518 47 0.0 0.0 0.00 0.00 0.00 66 1002.5
20260506110518 47 0.0 0.0 0.00 0.00 0.00 66 1002.4
20260506105518 47 0.0 0.0 0.00 0.00 0.00 65 1002.4
20260506104538 47 0.0 0.0 0.00 0.00 0.00 64 1002.3
20260506103517 47 0.0 0.0 0.00 0.00 0.00 63 1002.4
20260506102517 47 0.0 0.0 0.00 0.00 0.00 64 1002.4
20260506101517 47 0.0 0.0 0.00 0.00 0.00 64 1002.5
20260506100538 47 0.0 0.0 0.00 0.00 0.00 62 1002.6
20260506095517 47 0.0 0.0 0.00 0.00 0.00 62 1002.7
20260506094517 47 0.0 0.0 0.00 0.00 0.00 62 1002.7
20260506093517 47 0.0 0.0 0.00 0.00 0.00 63 1002.4
20260506092517 47 0.0 0.0 0.00 0.00 0.00 62 1002.3
20260506091517 47 0.0 0.0 0.00 0.00 0.00 62 1002.4
20260506090517 47 0.0 0.0 0.00 0.00 0.00 63 1002.2
20260506085517 47 0.0 0.0 0.00 0.00 0.00 63 1002.3
20260506084517 47 0.0 0.0 0.00 0.00 0.00 62 1002.3
20260506083517 47 0.0 0.0 0.00 0.00 0.00 62 1002.5
20260506082558 47 0.0 0.0 0.00 0.00 0.00 61 1002.5
20260506081517 47 0.0 0.0 0.00 0.00 0.00 60 1002.4
20260506080518 47 0.0 0.0 0.00 0.00 0.00 60 1002.2
20260506073517 47 0.0 0.0 0.00 0.00 0.00 61 1002.3
20260506072517 47 0.0 0.0 0.00 0.00 0.00 61 1002.4
20260506071537 48 0.0 0.0 0.00 0.00 0.00 61 1002.5
20260506070537 48 0.0 0.0 0.00 0.00 0.00 60 1002.6
20260506062517 48 0.0 0.0 0.00 0.00 0.00 57 1002.2
20260506061517 48 0.0 0.0 0.00 0.00 0.00 56 1002.3
20260506060537 48 0.0 0.0 0.00 0.00 0.00 56 1002.3
20260506050517 49 0.0 0.0 0.00 0.00 0.00 55 1002.3
20260506044517 50 0.0 0.0 0.00 0.00 0.00 53 1002.3
20260506043517 50 0.0 0.0 0.00 0.00 0.00 52 1002.1
20260506042517 50 0.0 0.0 0.00 0.00 0.00 53 1002.2
20260506041517 50 0.0 0.0 0.00 0.00 0.00 54 1002.2
20260506040517 50 0.0 0.0 0.00 0.00 0.00 53 1002.1
20260506035538 50 0.0 0.0 0.00 0.00 0.00 53 1001.9
20260506034518 50 0.0 0.0 0.00 0.00 0.00 54 1001.9
20260506033518 50 0.0 0.0 0.00 0.00 0.00 53 1001.9
20260506032518 51 0.0 0.0 0.00 0.00 0.00 52 1002.0
20260506031518 51 0.0 0.0 0.00 0.00 0.00 53 1001.9
20260506030518 51 0.0 0.0 0.00 0.00 0.00 51 1001.6
20260506025538 51 0.0 0.0 0.00 0.00 0.00 50 1001.5
20260506024517 51 0.0 0.0 0.00 0.00 0.00 50 1001.3
20260506023517 51 0.0 0.0 0.00 0.00 0.00 49 1001.3
20260506022517 51 0.0 0.0 0.00 0.00 0.00 49 1001.3
20260506021518 52 0.0 0.0 0.00 0.00 0.00 50 1001.1